TimeCST,TemperatureF,Dew PointF,Humidity,Sea Level PressureIn,VisibilityMPH,Wind Direction,Wind SpeedMPH,Gust SpeedMPH,PrecipitationIn,Events,Conditions,WindDirDegrees,DateUTC
12:53 AM,46.9,28.9,50,29.77,10.0,South,13.8,-,N/A,,Overcast,190,2012-12-06 06:53:00
1:53 AM,46.9,28.0,48,29.76,10.0,South,11.5,-,N/A,,Clear,180,2012-12-06 07:53:00
2:53 AM,48.9,26.1,41,29.76,10.0,SSW,13.8,-,N/A,,Mostly Cloudy,200,2012-12-06 08:53:00
3:53 AM,48.9,26.1,41,29.76,10.0,SSW,15.0,-,N/A,,Overcast,210,2012-12-06 09:53:00
4:53 AM,48.0,27.0,44,29.78,10.0,SW,11.5,-,0.00,Rain,Light Rain,230,2012-12-06 10:53:00
5:53 AM,45.0,30.9,58,29.81,10.0,WNW,11.5,-,0.00,,Mostly Cloudy,300,2012-12-06 11:53:00
6:53 AM,42.1,30.9,65,29.84,10.0,West,10.4,-,N/A,,Clear,280,2012-12-06 12:53:00
7:53 AM,41.0,28.9,62,29.87,10.0,NW,17.3,24.2,N/A,,Clear,310,2012-12-06 13:53:00
8:53 AM,39.9,28.0,63,29.89,10.0,NW,11.5,20.7,N/A,,Clear,310,2012-12-06 14:53:00
9:53 AM,42.1,28.9,60,29.91,10.0,WNW,16.1,-,N/A,,Clear,300,2012-12-06 15:53:00
10:53 AM,43.0,30.0,60,29.91,10.0,NW,15.0,28.8,N/A,,Clear,320,2012-12-06 16:53:00
11:53 AM,45.0,28.9,53,29.91,10.0,NW,10.4,-,N/A,,Clear,320,2012-12-06 17:53:00
12:53 PM,45.0,28.9,53,29.91,10.0,WNW,13.8,20.7,N/A,,Clear,300,2012-12-06 18:53:00
1:53 PM,45.0,28.0,52,29.91,10.0,WNW,18.4,21.9,N/A,,Clear,300,2012-12-06 19:53:00
2:53 PM,43.0,27.0,53,29.93,10.0,NW,12.7,20.7,N/A,,Clear,320,2012-12-06 20:53:00
3:53 PM,42.1,28.0,58,29.94,10.0,NW,10.4,-,N/A,,Clear,320,2012-12-06 21:53:00
4:53 PM,39.9,25.0,55,29.96,10.0,NW,12.7,19.6,N/A,,Clear,320,2012-12-06 22:53:00
5:53 PM,37.0,24.1,59,29.98,10.0,NNW,9.2,-,N/A,,Clear,340,2012-12-06 23:53:00
7:53 PM,33.1,19.9,59,30.02,10.0,NNW,9.2,-,N/A,,Clear,340,2012-12-07 01:53:00
8:53 PM,30.9,19.0,61,30.04,10.0,NNW,8.1,-,N/A,,Clear,340,2012-12-07 02:53:00
9:53 PM,30.0,19.0,64,30.03,10.0,North,6.9,-,N/A,,Mostly Cloudy,350,2012-12-07 03:53:00
10:53 PM,30.0,19.0,64,30.04,10.0,Variable,4.6,-,N/A,,Mostly Cloudy,0,2012-12-07 04:53:00
11:53 PM,28.0,18.0,66,30.06,10.0,Calm,Calm,-,N/A,,Mostly Cloudy,0,2012-12-07 05:53:00